DW3200 Weather Reports


Display with metric or nautical units.
time (UTC)temp
F
wind
direction
speed
MPH
gust
MPH
rain 1hr
in
rain 24hr
in
rain mn
in
humidity
%
barometer
mb
20260507224552 69 281 7.0 0.0 0.00 0.00 0.00 39 1012.0
20260507223051 70 290 4.0 0.0 0.00 0.00 0.00 40 1012.1
20260507221538 69 283 3.0 0.0 0.00 0.00 0.00 40 1012.2
20260507220038 69 294 6.0 0.0 0.00 0.00 0.00 40 1012.3
20260507214539 69 277 5.0 0.0 0.00 0.00 0.00 37 1012.4
20260507213040 68 294 4.0 0.0 0.00 0.00 0.00 40 1012.5
20260507211546 68 306 4.0 0.0 0.00 0.00 0.00 45 1012.7
20260507210034 68 294 1.0 0.0 0.00 0.00 0.00 46 1012.8
20260507204533 68 303 4.0 0.0 0.00 0.00 0.00 45 1012.8
20260507203035 66 305 4.0 0.0 0.00 0.00 0.00 47 1012.9
20260507201516 67 298 1.0 0.0 0.00 0.00 0.00 46 1013.1
20260507200012 66 285 2.0 0.0 0.00 0.00 0.00 44 1013.1
20260507194558 67 271 6.0 0.0 0.00 0.00 0.00 42 1013.2
20260507193101 65 300 6.0 0.0 0.00 0.00 0.00 43 1013.2
20260507191558 65 310 6.0 0.0 0.00 0.00 0.00 42 1013.2
20260507190055 65 309 5.0 0.0 0.00 0.00 0.00 44 1013.3
20260507184553 64 281 5.0 0.0 0.00 0.00 0.00 41 1013.4
20260507183051 64 314 3.0 0.0 0.00 0.00 0.00 43 1013.3
20260507181550 63 281 2.0 0.0 0.00 0.00 0.00 48 1013.5
20260507180050 62 299 3.0 0.0 0.00 0.00 0.00 43 1013.5
20260507174544 63 291 1.0 0.0 0.00 0.00 0.00 48 1013.4
20260507173029 63 281 1.0 0.0 0.00 0.00 0.00 50 1013.3
20260507171509 62 281 1.0 0.0 0.00 0.00 0.00 53 1013.4
20260507170008 61 289 4.0 0.0 0.00 0.00 0.00 55 1013.7
20260507164553 60 309 3.0 0.0 0.00 0.00 0.00 56 1013.6
20260507163050 61 300 1.0 0.0 0.00 0.00 0.00 55 1013.7
20260507161530 61 300 0.0 0.0 0.00 0.00 0.00 59 1013.7
20260507160037 60 300 0.0 0.0 0.00 0.00 0.00 60 1013.8
20260507154512 57 300 0.0 0.0 0.00 0.00 0.00 66 1013.9
20260507153013 56 300 1.0 0.0 0.00 0.00 0.00 67 1013.9
20260507151558 55 300 2.0 0.0 0.00 0.00 0.00 72 1014.0
20260507150052 54 300 0.0 0.0 0.00 0.00 0.00 77 1014.0
20260507144534 53 300 0.0 0.0 0.00 0.00 0.00 80 1014.0
20260507143033 53 300 0.0 0.0 0.00 0.00 0.00 81 1013.8
20260507141515 52 300 0.0 0.0 0.00 0.00 0.00 84 1013.6
20260507140027 48 300 0.0 0.0 0.00 0.00 0.00 87 1013.5
20260507134501 46 300 0.0 0.0 0.00 0.00 0.00 87 1013.2
20260507133106 46 300 0.0 0.0 0.00 0.00 0.00 86 1013.1
20260507131620 45 300 0.0 0.0 0.00 0.00 0.00 86 1012.9
20260507130105 45 300 0.0 0.0 0.00 0.00 0.00 86 1012.8
20260507124601 44 300 0.0 0.0 0.00 0.00 0.00 86 1012.7
20260507123102 44 300 0.0 0.0 0.00 0.00 0.00 85 1012.6
20260507121554 44 300 0.0 0.0 0.00 0.00 0.00 85 1012.5
20260507120051 45 300 0.0 0.0 0.00 0.00 0.00 85 1012.5
20260507114533 45 300 0.0 0.0 0.00 0.00 0.00 85 1012.3
20260507113100 45 300 1.0 0.0 0.00 0.00 0.00 85 1012.3
20260507111515 45 300 0.0 0.0 0.00 0.00 0.00 87 1012.1
20260507110015 45 300 0.0 0.0 0.00 0.00 0.00 87 1012.2
20260507104606 45 300 0.0 0.0 0.00 0.00 0.00 85 1012.2
20260507103053 47 300 0.0 0.0 0.00 0.00 0.00 86 1012.3
20260507101534 47 300 0.0 0.0 0.00 0.00 0.00 86 1012.4
20260507100042 48 300 0.0 0.0 0.00 0.00 0.00 86 1012.3
20260507094513 48 300 1.0 0.0 0.00 0.00 0.00 86 1012.1
20260507093010 49 300 0.0 0.0 0.00 0.00 0.00 84 1011.9
20260507091550 50 300 0.0 0.0 0.00 0.00 0.00 85 1012.1
20260507090047 50 300 0.0 0.0 0.00 0.00 0.00 85 1011.8
20260507084545 51 300 0.0 0.0 0.00 0.00 0.00 84 1011.9
20260507083027 51 300 0.0 0.0 0.00 0.00 0.00 84 1011.8
20260507081507 52 300 0.0 0.0 0.00 0.00 0.00 84 1011.7
20260507080006 51 300 0.0 0.0 0.00 0.00 0.00 84 1011.7
20260507074548 51 300 0.0 0.0 0.00 0.00 0.00 84 1011.6
20260507073046 52 300 0.0 0.0 0.00 0.00 0.00 83 1011.6
20260507071529 53 300 0.0 0.0 0.00 0.00 0.00 83 1011.5
20260507070026 53 300 0.0 0.0 0.00 0.00 0.00 82 1011.6
20260507064506 53 300 0.0 0.0 0.00 0.00 0.00 81 1011.5
20260507063003 53 300 0.0 0.0 0.00 0.00 0.00 80 1011.4
20260507061543 54 300 0.0 0.0 0.00 0.00 0.00 78 1011.3
20260507060043 55 300 0.0 0.0 0.00 0.00 0.00 77 1011.1
20260507054530 56 300 0.0 0.0 0.00 0.00 0.00 76 1011.2
20260507053016 57 300 0.0 0.0 0.00 0.00 0.00 74 1011.2
20260507051606 57 300 0.0 0.0 0.00 0.00 0.00 73 1011.2
20260507050108 58 300 0.0 0.0 0.00 0.00 0.00 72 1011.1
20260507044546 58 300 0.0 0.0 0.00 0.00 0.00 70 1011.2
20260507043032 59 300 0.0 0.0 0.00 0.00 0.00 69 1011.1
20260507041513 60 300 0.0 0.0 0.00 0.00 0.00 67 1011.2
20260507040013 61 300 0.0 0.0 0.00 0.00 0.00 65 1011.2
20260507034551 62 300 0.0 0.0 0.00 0.00 0.00 63 1011.1
20260507033051 63 300 0.0 0.0 0.00 0.00 0.00 59 1011.0
20260507031534 65 300 0.0 0.0 0.00 0.00 0.00 55 1011.0
20260507030037 65 300 0.0 0.0 0.00 0.00 0.00 53 1010.9
20260507024517 66 300 0.0 0.0 0.00 0.00 0.00 51 1011.0
20260507023014 67 300 5.0 0.0 0.00 0.00 0.00 49 1011.0
20260507021623 67 296 5.0 0.0 0.00 0.00 0.00 48 1011.1
20260507020058 68 288 5.0 0.0 0.00 0.00 0.00 47 1010.8
20260507014559 69 291 5.0 0.0 0.00 0.00 0.00 45 1010.9
20260507013038 70 277 6.0 0.0 0.00 0.00 0.00 45 1010.8
20260507011540 70 284 6.0 0.0 0.00 0.00 0.00 44 1010.7
20260507010032 71 293 5.0 0.0 0.00 0.00 0.00 43 1010.7
20260507004522 71 284 5.0 0.0 0.00 0.00 0.00 41 1010.8
20260507003004 71 288 9.0 0.0 0.00 0.00 0.00 43 1010.9
20260507001502 71 288 9.0 0.0 0.00 0.00 0.00 44 1010.7
20260507000044 71 298 10.0 0.0 0.00 0.00 0.00 43 1010.6
20260506234552 72 280 10.0 0.0 0.00 0.00 0.00 44 1010.5
20260506233025 74 293 7.0 0.0 0.00 0.00 0.00 42 1010.6
20260506231527 74 284 6.0 0.0 0.00 0.00 0.00 42 1010.7
20260506230006 73 287 7.0 0.0 0.00 0.00 0.00 41 1011.0